GFSMA_850_dewp_126.txt.gz
Dewpoint
13 13 14 14 14 14 14 14 14 12 11 12 12 12 12 12 12 11 12 10 10 10 9 10 9 10 9 10 9 7 8 9 9 9 8 8 8 8 7 -1 -13 -13 -13
13 13 13 13 13 13 14 14 13 12 13 13 12 11 12 12 12 12 11 12 9 10 9 9 10 11 9 8 7 7 8 9 9 9 8 8 8 7 7 2 -4 -10 -11
6 7 10 12 9 13 13 13 13 12 13 12 12 12 11 9 11 12 12 11 12 9 9 9 9 10 9 9 8 7 8 9 9 8 7 7 7 7 7 3 -1 -9 -10
5 4 7 9 10 11 11 11 11 10 12 13 13 12 12 12 12 12 12 12 11 11 10 9 9 10 10 10 10 7 8 8 8 8 8 7 7 7 6 5 -0 -9 -10
5 1 3 6 8 7 8 10 10 11 11 12 13 12 12 12 12 12 12 12 12 11 11 10 9 9 9 10 10 8 5 7 7 8 7 7 7 7 5 4 -4 -10 -10
4 3 2 4 5 7 7 8 10 10 11 12 12 13 12 12 12 12 11 12 11 11 11 10 10 9 9 10 10 8 7 5 8 7 7 7 7 7 6 3 -5 -9 -10
3 4 3 3 3 5 6 6 8 10 12 12 12 12 11 11 11 11 11 10 10 11 11 10 10 9 9 9 10 9 8 6 6 7 7 6 7 7 7 4 -4 -7 -9
2 4 4 5 4 5 7 8 8 10 11 12 12 11 12 11 10 10 10 9 11 11 10 8 9 11 10 9 9 9 9 7 7 6 7 7 7 7 7 6 4 -8 -11
6 4 5 8 8 6 5 6 7 8 10 11 11 11 11 10 9 11 9 8 8 10 9 9 8 9 8 8 10 10 9 8 8 7 7 6 6 6 7 7 5 -3 -11
9 9 7 11 11 6 6 6 7 8 10 11 12 11 10 9 9 8 11 7 8 8 8 8 9 9 9 7 10 8 9 8 7 8 7 6 7 7 6 6 6 4 -5
11 12 12 9 9 7 7 7 8 9 11 11 12 11 10 11 11 9 8 10 10 9 10 10 7 9 8 8 9 9 9 7 7 8 7 6 6 6 6 6 6 6 5
11 12 13 11 10 8 8 9 9 9 10 11 12 11 11 11 11 10 10 9 9 10 11 10 9 8 9 8 8 7 9 7 7 7 7 7 7 6 6 6 6 6 6
13 11 14 14 12 11 10 9 9 6 4 9 10 11 11 10 10 10 10 9 9 10 10 10 9 7 8 8 9 8 9 7 7 7 8 7 7 7 6 6 6 6 5
13 13 13 14 13 10 10 10 9 6 3 6 10 11 11 11 11 10 10 11 10 10 10 10 9 8 7 8 9 9 9 7 6 6 6 6 6 6 6 6 6 6 6
12 12 13 13 13 11 10 10 9 7 8 8 10 8 11 11 11 11 10 10 11 10 9 9 8 8 7 8 8 9 9 8 6 6 5 5 6 6 6 5 6 7 6
10 12 12 13 13 13 11 10 8 11 9 9 7 6 11 11 11 10 10 8 8 9 9 9 9 7 8 8 8 9 9 7 6 6 6 6 7 7 7 6 6 5 5
6 10 11 12 12 12 12 13 11 10 9 8 7 8 10 11 11 11 10 9 9 9 9 10 8 8 9 8 8 9 9 8 8 7 7 7 7 7 7 7 6 6 6
10 10 11 10 11 11 13 12 11 10 9 9 8 9 11 11 11 11 10 10 9 7 9 8 9 8 8 9 9 9 8 8 8 8 7 7 7 7 7 7 6 7 7
9 10 10 11 11 11 11 11 12 11 9 9 9 10 9 11 11 11 11 10 7 8 9 9 9 7 9 9 9 9 7 7 6 6 6 6 6 5 6 6 6 7 7
7 8 9 10 10 10 10 11 10 11 11 11 11 10 9 10 11 11 11 9 7 8 8 9 8 9 8 9 8 8 7 7 7 8 7 4 7 7 6 7 7 7 7
5 5 6 6 7 8 9 10 10 10 10 10 11 11 11 11 10 11 10 7 7 8 8 9 8 9 8 8 8 7 8 8 8 8 6 5 5 7 7 8 8 8 7
2 2 3 4 4 5 6 8 9 10 10 10 10 10 10 10 10 11 9 7 7 9 9 9 8 9 8 8 8 8 8 8 7 7 6 5 7 7 7 8 8 8 8
0 0 1 1 2 3 4 5 7 8 9 9 9 9 9 9 10 10 8 8 8 8 8 9 9 8 8 8 8 8 8 8 8 7 5 5 7 7 8 8 8 8 8
-2 -1 -1 -1 -0 0 2 3 4 6 6 6 7 8 8 8 9 9 9 9 8 8 9 9 9 8 8 8 8 8 8 8 8 8 8 8 7 7 7 7 7 7 7
-3 -3 -3 -2 -2 -2 -1 0 1 2 3 3 3 4 6 7 8 8 9 9 9 9 9 9 9 8 8 8 8 8 8 8 8 8 7 7 6 4 3 4 3 4 3
-5 -5 -5 -4 -4 -3 -2 -2 -2 -1 0 1 1 2 3 3 4 8 8 8 9 9 9 8 8 8 8 8 8 8 8 8 8 7 7 7 6 4 0 -0 0 1 0

GFSMA_850_dewp_129.txt.gz
Dewpoint
14 14 14 13 13 14 13 13 12 12 13 13 13 12 11 11 12 11 11 10 9 9 9 9 10 10 8 9 9 10 10 9 9 8 9 9 8 7 5 -1 -9 -13 -12
13 14 13 13 13 14 13 13 12 12 13 12 12 12 12 12 12 11 11 11 10 9 10 9 9 10 10 7 8 8 7 7 9 8 8 8 8 8 5 -4 -14 -12 -10
13 13 14 14 14 13 13 13 12 12 12 12 12 12 12 12 12 11 12 12 11 10 9 9 9 9 10 8 8 8 7 7 8 8 9 8 8 8 7 1 -11 -10 -9
14 14 14 14 14 14 12 13 13 13 12 12 12 12 12 12 11 11 11 11 11 11 11 9 8 8 9 9 10 10 8 7 7 8 8 8 8 8 8 5 -4 -6 -10
9 14 10 10 13 13 13 12 13 13 13 12 12 12 13 11 11 12 11 11 11 11 11 11 9 9 9 10 10 10 10 8 8 8 8 7 6 7 7 5 1 -7 -7
5 13 13 14 9 13 13 10 12 11 13 12 12 12 12 12 12 11 11 11 11 11 11 11 11 9 9 9 9 9 10 8 7 8 7 7 7 7 7 5 3 -5 -1
2 4 10 11 5 7 8 7 10 14 12 12 12 12 12 12 12 12 12 11 11 11 11 11 11 11 10 9 9 9 10 8 7 7 7 6 7 7 7 4 5 1 -0
5 0 3 11 7 7 9 9 9 13 11 11 12 12 12 11 12 10 11 11 11 11 10 11 11 10 10 11 9 8 9 8 9 6 7 5 6 6 7 7 5 6 -1
8 2 1 8 8 5 8 8 13 13 11 8 13 11 10 9 8 10 11 10 11 11 11 11 11 10 11 10 9 9 9 9 8 7 7 6 4 5 6 7 7 6 1
13 12 6 8 11 9 9 12 11 12 12 11 13 12 11 9 9 8 11 11 8 9 10 11 12 10 11 10 10 9 9 9 9 9 8 7 6 5 6 7 6 6 5
14 14 13 13 12 12 12 12 10 12 12 12 12 11 10 12 11 10 9 10 11 9 8 10 9 10 10 10 9 9 8 10 9 8 8 8 7 6 5 6 6 6 6
14 14 14 13 13 13 13 12 12 11 8 10 10 10 11 10 10 11 11 10 9 10 9 9 10 10 9 9 9 9 8 9 9 9 8 8 7 6 6 6 6 6 6
13 13 14 14 13 13 13 13 12 11 9 9 8 7 10 10 8 10 10 10 9 8 9 10 10 10 10 10 9 9 9 9 9 8 8 8 8 6 6 6 6 6 6
13 13 13 13 13 14 13 13 13 12 12 10 8 5 9 11 11 10 10 10 10 10 9 10 10 10 10 9 9 8 8 8 9 8 7 7 8 7 7 6 6 6 6
12 12 12 12 12 13 13 13 13 13 13 12 12 10 11 12 11 8 8 10 10 10 10 10 10 10 10 10 9 7 8 9 8 8 7 7 8 8 7 7 7 6 6
11 11 11 12 11 12 12 12 12 13 13 13 11 11 11 12 9 11 11 11 10 10 11 9 9 9 10 9 9 7 8 8 9 9 7 7 7 7 7 6 6 6 6
8 8 9 10 12 11 12 11 12 12 13 12 10 8 10 12 11 12 12 11 10 11 10 9 10 9 9 9 9 8 8 9 9 9 8 7 7 7 6 6 7 7 6
8 9 10 10 11 11 11 11 12 12 12 12 12 12 12 10 11 12 10 9 11 11 10 9 9 9 9 9 9 8 8 8 9 9 8 7 6 7 6 7 7 7 7
7 8 9 10 10 11 11 11 11 12 12 11 12 12 11 11 11 11 9 9 11 11 10 10 10 9 9 9 9 8 9 9 9 9 8 7 7 7 7 7 7 7 7
6 7 7 7 7 8 9 10 10 11 11 11 11 11 11 10 10 10 10 11 11 11 11 10 9 9 9 9 8 8 9 9 9 9 8 8 7 8 8 7 7 7 7
2 3 3 4 4 5 6 7 8 9 10 10 10 10 10 10 10 10 11 10 10 10 10 10 8 9 9 8 8 9 9 8 8 8 8 7 6 5 6 6 7 6 3
-1 -0 1 1 1 2 3 4 5 6 7 8 8 9 9 10 10 10 10 10 10 10 10 10 9 9 8 8 8 9 8 8 8 7 6 6 7 7 7 7 5 6 6
-3 -3 -2 -2 -2 -0 0 2 3 4 4 5 5 6 7 8 9 9 9 9 10 10 10 9 8 9 8 8 8 9 8 8 8 7 7 8 8 7 7 6 6 6 7
-5 -4 -4 -4 -3 -2 -2 -1 0 1 2 2 2 3 4 4 5 7 8 9 9 9 9 9 9 9 9 9 9 8 7 8 8 8 8 8 7 7 7 6 7 7 7
-7 -6 -7 -6 -6 -5 -4 -2 -2 -1 -1 -0 0 1 1 2 3 3 5 6 8 9 9 9 9 9 9 9 9 8 8 8 8 8 8 8 7 7 6 6 6 6 6
-8 -8 -8 -8 -8 -8 -7 -6 -5 -4 -3 -3 -2 -1 0 0 1 1 3 4 5 7 8 8 8 9 9 8 8 9 9 8 8 8 8 7 7 7 3 3 4 5 3

GFSMA_850_dewp_135.txt.gz
Dewpoint
9 9 10 10 11 11 10 10 9 9 8 8 10 12 12 11 11 12 11 10 10 10 9 8 9 9 9 9 9 9 9 8 9 9 9 9 8 8 8 5 3 3 2
10 10 11 12 12 12 12 11 11 10 10 10 11 12 12 11 12 11 11 11 9 9 9 9 8 8 9 9 9 8 7 6 8 9 9 9 8 8 8 8 3 0 3
11 11 11 11 12 11 11 12 12 11 12 11 11 12 11 11 10 10 10 10 9 10 10 9 9 9 8 9 10 9 8 7 9 9 8 9 9 8 8 7 3 -3 2
12 13 11 11 12 12 12 12 12 12 12 11 11 11 10 10 10 10 10 10 9 10 9 9 9 10 9 8 9 10 8 8 8 8 8 9 8 8 7 8 6 -3 -8
13 13 12 11 11 12 12 12 11 12 12 12 11 11 11 11 10 10 10 10 10 9 9 9 9 10 10 9 9 9 10 8 9 8 7 7 9 8 8 6 7 2 -8
13 13 12 13 13 12 11 12 13 12 12 11 11 11 11 11 11 10 10 10 10 10 10 10 9 9 10 10 9 9 9 9 9 10 8 7 9 9 8 7 5 4 -3
14 13 11 14 14 12 12 11 13 13 12 12 13 12 12 12 11 11 11 10 11 10 10 10 10 10 10 10 10 9 9 9 9 10 9 9 9 9 8 8 5 6 2
13 13 13 12 14 12 13 12 12 12 12 13 13 13 13 12 12 12 11 10 10 11 10 10 10 8 10 10 9 9 9 9 9 9 9 10 9 9 8 7 5 5 6
14 13 12 12 13 14 12 12 12 11 12 13 13 11 12 11 11 10 8 8 9 10 10 11 10 9 9 8 9 9 9 9 9 9 9 9 10 8 8 7 5 4 6
13 13 12 11 12 13 14 13 11 13 13 12 13 11 11 9 9 9 8 8 9 10 10 9 10 10 9 8 10 10 8 9 9 9 9 10 9 9 7 7 7 6 5
13 13 13 13 11 14 12 12 12 13 14 13 10 9 12 11 11 12 11 9 10 10 10 8 8 9 8 7 9 10 8 8 9 9 9 10 10 9 8 6 7 7 6
13 13 12 13 13 13 13 11 8 10 13 13 11 10 10 12 10 11 12 10 9 8 8 10 9 9 9 8 7 8 8 8 8 9 9 10 10 10 10 7 7 6 6
12 11 12 14 14 12 12 13 12 11 13 12 12 10 11 11 9 8 9 9 10 9 9 9 9 9 9 8 7 8 8 8 8 8 8 9 10 10 10 9 6 4 5
10 8 7 11 12 13 13 13 12 12 12 13 12 12 12 11 12 10 11 10 10 10 10 9 9 8 9 8 8 8 8 8 8 8 8 8 9 9 10 9 7 6 6
8 9 8 9 7 10 10 12 13 13 12 11 11 11 12 12 12 11 12 11 10 10 9 8 8 7 7 8 8 9 9 8 7 8 8 8 8 9 9 10 7 6 7
9 8 8 9 7 8 6 12 12 12 12 12 12 12 11 11 12 11 11 11 10 10 10 9 8 7 8 9 9 10 9 8 6 7 8 7 8 9 9 10 9 8 7
9 9 9 9 10 10 11 11 11 11 11 12 12 12 12 12 12 11 11 11 11 10 10 10 9 9 10 9 9 9 9 9 8 7 7 7 7 8 9 10 9 9 7
7 7 8 7 8 9 9 10 10 11 10 10 10 11 11 11 11 12 11 12 11 11 11 12 9 6 7 9 8 9 9 9 9 8 8 7 7 8 9 9 9 9 6
5 6 7 7 7 7 8 8 8 8 8 8 9 9 9 9 10 11 11 11 11 11 11 10 9 8 8 10 9 10 9 9 10 9 9 8 8 7 8 9 9 8 8
3 3 3 3 4 4 4 5 5 5 6 6 6 6 6 7 7 7 9 9 10 10 10 11 10 11 11 11 11 11 10 9 10 9 9 8 8 8 8 9 9 9 8
-3 -2 0 0 1 1 1 1 2 2 3 3 3 4 4 3 4 4 5 6 7 8 8 10 10 10 10 10 10 10 9 10 9 10 9 8 8 8 8 8 8 9 7
-8 -7 -7 -6 -5 -4 -4 -2 -2 -2 -2 0 1 0 1 1 1 2 3 4 4 4 4 6 8 9 9 10 8 7 9 10 9 9 9 8 7 8 7 8 9 9 8
-13 -13 -12 -11 -10 -9 -8 -7 -6 -5 -5 -4 -4 -4 -4 -3 -3 -2 -1 -0 2 2 3 4 4 6 6 8 8 9 9 9 9 9 9 8 7 7 7 8 8 9 9
-19 -19 -19 -18 -17 -16 -15 -15 -14 -14 -11 -9 -8 -8 -7 -7 -6 -5 -4 -3 -2 -1 1 2 2 3 4 5 6 7 8 9 9 9 9 9 7 7 7 8 9 9 8
-23 -24 -24 -23 -23 -24 -24 -25 -23 -21 -18 -16 -13 -10 -9 -8 -7 -7 -7 -6 -5 -4 -2 -1 0 1 2 3 4 6 8 7 8 9 9 8 8 8 8 8 8 8 8
-29 -30 -31 -30 -28 -26 -26 -25 -25 -25 -22 -19 -18 -16 -13 -10 -8 -7 -7 -6 -6 -5 -4 -3 -2 -1 0 1 2 3 4 6 5 7 8 8 8 8 8 8 8 8 8

GFSMA_850_dewp_141.txt.gz
Dewpoint
10 10 10 10 10 9 8 7 8 9 8 7 7 6 6 8 10 11 10 11 10 9 9 8 9 9 9 8 8 8 9 9 10 10 9 9 8 7 7 5 7 8 8
12 11 10 10 10 9 9 8 8 8 9 8 7 6 6 10 11 10 10 11 10 10 9 9 8 8 9 8 9 8 9 9 9 10 9 9 8 8 7 7 2 4 8
14 13 11 10 9 9 9 9 8 9 10 9 8 8 10 10 11 11 10 10 10 10 9 9 9 9 9 9 9 9 9 9 9 9 10 9 9 9 8 7 6 -2 3
14 14 14 12 11 10 9 9 9 10 10 10 9 8 10 11 11 10 10 10 9 9 9 8 9 9 9 9 9 9 9 9 8 7 7 8 9 8 8 8 8 1 -3
11 13 13 14 13 11 10 10 10 11 11 11 11 9 10 11 10 11 10 9 9 9 9 8 8 8 8 9 10 9 9 9 9 8 7 8 9 8 7 8 8 7 1
-5 7 12 13 13 12 11 10 11 12 12 11 11 10 11 10 11 10 10 9 9 8 10 9 8 8 8 9 9 10 10 9 9 9 8 8 9 9 8 8 8 7 7
-6 -5 4 12 13 13 12 11 11 12 13 12 12 12 11 10 10 10 10 10 9 9 10 10 9 9 9 9 9 9 9 10 9 9 9 7 8 9 8 8 8 9 8
-6 -5 -5 3 12 13 12 12 11 12 13 12 12 12 12 12 11 11 10 10 10 10 9 10 10 10 10 9 9 9 9 9 10 10 9 9 8 9 9 8 8 9 8
-4 -4 -6 -4 9 10 11 12 11 11 12 13 12 12 12 12 12 11 11 11 11 11 10 10 10 10 9 10 10 9 9 9 10 9 9 9 9 9 9 9 8 8 9
-2 -3 -7 -7 -4 11 12 12 13 11 11 12 12 12 12 10 10 10 10 10 10 11 10 10 9 10 9 10 10 9 9 9 9 9 9 9 9 9 10 10 9 8 9
1 -1 -4 -9 -7 6 11 7 8 12 11 11 12 12 13 12 10 9 6 6 8 9 10 9 9 9 9 9 10 9 9 9 10 9 9 9 9 9 9 10 10 9 9
5 5 -2 -7 1 6 8 10 11 11 11 11 12 12 12 12 11 10 8 6 5 5 7 9 8 8 8 9 8 7 8 8 9 10 9 10 9 9 9 10 10 10 9
4 6 6 6 8 6 8 10 10 12 12 11 11 11 11 11 11 12 12 11 9 8 8 8 8 8 8 8 8 7 7 7 8 9 8 9 11 9 9 10 10 10 10
4 6 7 7 7 7 6 5 9 9 8 12 12 11 9 9 9 10 10 10 12 11 10 9 8 9 8 8 8 8 9 9 8 8 7 8 8 9 10 10 10 9 9
4 6 8 7 8 7 5 4 10 9 9 8 12 11 9 9 9 8 9 9 10 11 11 10 9 8 8 8 8 8 7 8 7 8 8 8 8 9 9 10 10 9 9
2 5 7 8 8 8 4 7 9 9 10 9 9 9 11 11 11 11 11 10 10 11 11 11 11 11 11 9 9 6 7 8 8 8 8 8 9 9 8 9 9 9 9
-2 0 5 7 8 9 8 8 9 9 9 8 9 8 8 8 10 8 9 8 10 11 11 11 11 11 11 10 8 7 7 9 8 9 8 8 8 9 9 8 8 8 9
-4 -2 1 4 5 6 7 8 8 7 8 8 7 7 7 7 7 7 8 9 8 10 9 10 10 10 9 9 8 10 10 8 9 7 7 7 8 9 9 9 8 8 8
-6 -4 -2 1 2 4 5 4 4 5 6 5 5 5 4 4 6 7 6 5 6 6 6 8 8 9 9 9 9 10 9 9 9 7 7 8 9 8 9 10 9 9 9
-5 -4 -3 -2 -0 0 1 2 3 3 2 2 2 3 3 3 2 4 3 4 4 4 4 4 4 5 6 6 7 8 9 8 9 9 8 8 8 8 8 9 9 9 9
-13 -14 -11 -12 -11 -11 -8 -5 -2 -1 -1 -2 -2 -2 -3 -3 -3 -2 -2 -2 -2 -1 -1 -0 1 2 3 3 4 4 5 7 8 8 9 8 8 7 6 9 9 8 8
-28 -29 -27 -25 -26 -26 -26 -27 -28 -26 -25 -22 -22 -20 -19 -16 -14 -11 -10 -9 -8 -7 -6 -4 -4 -3 -2 -1 0 2 2 3 4 6 7 9 8 9 7 8 8 9 8
-33 -32 -32 -31 -29 -27 -27 -27 -29 -29 -29 -30 -30 -30 -30 -30 -29 -24 -20 -17 -14 -11 -10 -8 -6 -6 -5 -4 -3 -2 -2 -1 -0 2 3 5 6 7 8 8 8 7 8
-34 -33 -31 -29 -31 -32 -34 -34 -33 -34 -33 -31 -31 -31 -30 -29 -31 -33 -28 -25 -22 -17 -14 -11 -8 -7 -7 -6 -6 -5 -4 -3 -2 -1 1 2 4 5 6 7 8 8 8
-35 -35 -35 -35 -34 -26 -33 -36 -36 -36 -35 -34 -33 -33 -32 -31 -30 -31 -29 -29 -28 -24 -21 -14 -11 -10 -9 -8 -8 -7 -6 -5 -5 -4 -1 -1 1 2 4 6 7 7 8
-34 -35 -35 -35 -36 -33 -29 -36 -37 -37 -36 -36 -34 -33 -31 -28 -27 -26 -26 -25 -23 -19 -18 -19 -18 -16 -14 -12 -11 -9 -8 -8 -7 -6 -4 -4 -2 -2 -1 3 4 6 7

GFSMA_850_dewp_144.txt.gz
Dewpoint
13 12 12 11 11 11 9 9 8 7 8 8 7 6 6 5 6 8 9 10 10 9 9 8 8 10 9 9 8 8 9 8 10 10 9 8 8 7 7 6 6 7 8
9 13 13 12 11 11 11 9 9 8 8 8 8 7 6 6 6 8 10 10 11 10 9 9 8 8 9 9 9 8 8 9 9 10 10 9 9 8 8 7 5 8 8
-5 8 11 13 12 12 12 11 9 9 9 9 9 8 7 6 7 8 11 10 10 10 10 9 9 9 8 9 8 9 8 8 9 9 9 10 9 9 8 7 7 6 6
-9 -7 5 10 13 13 12 12 10 9 9 9 9 9 8 7 7 10 11 10 10 10 9 9 8 8 9 9 9 8 9 9 9 9 9 9 9 9 8 8 7 8 4
-10 -8 -7 1 11 13 13 12 12 10 10 9 9 9 9 8 9 11 11 10 10 10 9 9 8 8 9 9 9 9 9 9 9 9 8 7 7 8 9 8 7 7 7
-8 -8 -7 -6 -2 12 12 13 13 12 10 10 9 10 10 9 9 11 11 10 10 9 9 8 9 8 8 8 9 9 10 9 9 9 9 8 7 7 9 9 8 7 7
-4 -6 -7 -6 -5 -3 8 12 13 13 13 11 11 12 11 11 9 10 11 10 10 10 10 9 9 9 8 8 8 9 9 9 9 9 8 9 9 7 8 9 8 8 8
-0 -1 -3 -5 -4 -3 -3 10 8 13 13 13 12 13 13 12 10 11 10 10 10 9 9 9 8 9 8 9 8 9 9 9 9 9 9 9 9 8 7 8 9 9 8
-1 -0 -1 -2 -4 -4 -2 -3 4 13 12 13 12 12 12 12 11 10 10 10 11 10 10 10 9 9 10 10 10 10 9 9 9 9 9 9 10 9 9 8 9 9 9
1 2 1 -0 -3 -6 -5 6 7 7 7 12 13 12 11 10 11 11 11 10 10 11 10 10 10 10 10 10 10 10 9 10 10 10 9 9 9 10 9 9 9 9 8
2 3 4 4 -1 -4 -7 5 10 8 8 5 12 12 11 11 10 9 9 10 10 10 10 10 10 10 10 9 9 9 10 10 10 10 9 9 9 9 10 9 9 10 9
1 3 4 6 4 -1 -5 -7 10 9 7 8 12 11 10 11 11 10 10 8 6 7 8 9 9 9 10 10 9 9 9 9 10 10 9 10 10 9 9 10 9 9 10
1 3 3 6 7 4 1 -2 -2 7 9 9 11 11 11 10 10 11 11 10 7 8 7 6 6 7 8 9 8 8 9 8 8 8 8 8 8 9 9 10 10 9 10
1 3 4 5 5 7 7 7 7 8 8 9 9 8 10 12 11 10 10 10 11 10 9 9 7 7 8 8 8 8 9 9 8 8 8 9 9 8 8 9 9 9 9
0 1 2 4 6 7 8 9 10 9 8 7 5 6 8 11 11 10 9 9 10 10 10 8 9 8 8 9 9 8 8 8 8 8 8 8 7 8 8 8 9 9 9
-1 0 2 3 4 7 8 9 9 8 10 9 9 8 9 6 8 11 10 10 9 9 11 10 10 10 9 9 10 10 9 9 8 7 7 8 8 8 8 8 9 9 9
-2 -1 -1 -1 1 4 7 8 8 9 10 9 8 8 8 8 9 9 9 9 9 9 9 10 10 11 11 11 11 11 10 9 8 7 7 8 8 8 8 9 9 9 9
-4 -4 -4 -4 -4 -2 3 5 6 7 7 7 6 5 6 7 8 8 7 8 8 8 6 7 8 8 8 10 10 9 8 9 10 10 9 8 8 8 7 7 8 9 9
-3 -3 -5 -6 -6 -5 -5 0 3 3 4 5 5 5 4 5 5 4 4 6 7 7 7 7 7 6 4 8 9 9 9 9 9 9 8 8 8 6 7 7 8 9 9
-5 -4 -4 -4 -5 -3 -5 -4 1 1 2 2 2 2 2 2 2 2 2 3 3 4 4 5 4 4 4 4 4 5 6 7 8 8 8 7 7 8 8 9 9 9 9
-24 -21 -24 -22 -24 -21 -16 -14 -10 -8 -7 -6 -3 -3 -1 -4 -7 -6 -5 -5 -3 -2 -3 -3 -2 -2 -2 -2 -1 -1 -1 1 3 3 4 7 8 8 8 8 9 9 9
-26 -29 -29 -29 -24 -27 -30 -27 -29 -27 -27 -27 -27 -25 -24 -20 -20 -18 -18 -18 -17 -15 -15 -13 -13 -13 -11 -10 -10 -9 -8 -7 -6 -4 -1 2 3 5 7 7 7 8 9
-30 -30 -31 -32 -32 -34 -35 -35 -34 -34 -34 -33 -33 -33 -35 -32 -27 -25 -23 -22 -21 -19 -17 -15 -13 -12 -11 -11 -11 -12 -10 -9 -10 -10 -6 -8 -5 -2 2 4 5 7 8
-33 -36 -32 -36 -37 -37 -37 -37 -36 -35 -35 -35 -35 -33 -35 -36 -36 -32 -32 -30 -27 -25 -21 -18 -16 -14 -13 -13 -12 -12 -12 -11 -13 -13 -11 -6 -12 -10 -7 -2 2 3 5
-34 -32 -33 -33 -36 -36 -37 -37 -37 -36 -36 -35 -35 -36 -34 -34 -36 -36 -35 -34 -30 -28 -25 -21 -18 -16 -15 -15 -15 -15 -16 -15 -14 -14 -9 -9 -11 -12 -14 -12 -6 -0 3
-34 -34 -34 -34 -34 -36 -37 -37 -38 -37 -37 -36 -35 -35 -34 -32 -32 -32 -31 -29 -28 -26 -28 -28 -26 -23 -21 -19 -17 -16 -15 -14 -12 -12 -12 -11 -10 -10 -9 -10 -10 -8 -5